Regional Weather Roundup
Issued by NWS

Home | Current Version | Previous Version | Graphics & Text | Print | Product List | Glossary On
Versions: 1 2 3 4 5 6 7 8 9 10 11 12 13 14 15 16 17 18 19 20 21 22 23 24 25 26 27 28 29 30 31 32 33 34 35 36 37 38 39 40 41 42 43 44 45 46 47 48 49 50
000
ASUS43 KMKX 300121
RWRWI

WISCONSIN REGIONAL WEATHER ROUNDUP
NATIONAL WEATHER SERVICE MILWAUKEE/SULLIVAN WI
800 PM CDT WED JUL 29 2015

NOTE: "FAIR" INDICATES FEW OR NO CLOUDS BELOW 12,000 FEET WITH NO
SIGNIFICANT WEATHER AND/OR OBSTRUCTIONS TO VISIBILITY.

WIZ001-002-006>008-014>016-023>028-300200-
NORTHWEST WISCONSIN

CITY           SKY/WX    TMP DP  RH WIND       PRES   REMARKS
SUPERIOR ARPT  PTCLDY    75  53  46 W13G25    29.81S
ASHLAND        PTCLDY    75  56  51 SW8       29.81R
HAYWARD        CLEAR     75  53  46 W8        29.87R
SIREN          PTCLDY    75  53  45 W8        29.89R
CUMBERLAND     CLEAR     72  52  49 W13       29.91R
RICE LAKE      CLEAR     74  53  49 W9        29.92R
CHETEK         CLEAR     74  56  52 W6        29.91R
LADYSMITH      CLEAR     75  55  49 W9        29.91S
EAU CLAIRE     CLEAR     76  56  49 W9        29.91S
MENOMONIE      CLEAR     77  55  47 W8        29.92S
NEW RICHMOND   PTCLDY    75  55  49 W8        29.93S
OSCEOLA        CLEAR     76  54  46 W12       29.94S
$$

WIZ003>005-009-010-017-018-300200-
NORTH CENTRAL WISCONSIN

CITY           SKY/WX    TMP DP  RH WIND       PRES   REMARKS
MANITOWISH WTR CLOUDY    71  56  58 SW6       29.86S
ARBOR VITAE    CLOUDY    72  55  54 W8        29.87S
WOODRUFF       CLOUDY    72  55  54 W8        29.87S
RHINELANDER    CLOUDY    74  52  46 W13G20    29.89R
EAGLE RIVER    CLOUDY    72  50  45 W9G17     29.86R
LAND O LAKES   CLOUDY    72  53  50 W8        29.87R
PHILLIPS       CLEAR     72  55  55 W8        29.88S
TOMAHAWK       PTCLDY    72  54  52 W9        29.90R
MEDFORD        CLEAR     72  55  55 W9        29.92R
MERRILL        NOT AVBL
$$

WIZ029-030-035-036-043>047-300200-
CENTRAL WISCONSIN

CITY           SKY/WX    TMP DP  RH WIND       PRES   REMARKS
WAUSAU         CLEAR     76  53  44 W13G23    29.89S
MOSINEE        PTCLDY    73  55  53 W9        29.92S
MARSHFIELD     CLEAR     74  53  48 W10       29.93R
STEVENS POINT  CLEAR     75  54  47 W10       29.93R
WAUPACA        PTCLDY    80  51  36 W7        29.92R
WAUTOMA        CLEAR     79  51  37 W10       29.93R
WISC RAPIDS    CLEAR     77  51  40 W8        29.94S
CAMP DOUGLAS   PTCLDY    73  55  53 W12       29.95R
$$

WIZ011>013-019>022-031-037>040-048>050-300200-
NORTHEAST WISCONSIN

CITY           SKY/WX    TMP DP  RH WIND       PRES   REMARKS
ANTIGO         CLEAR     72  53  51 W13       29.90S
SHAWANO        PTCLDY    78  53  40 W5        29.89R
OCONTO         MOCLDY    76  56  50 W5        29.86R
STURGEON BAY   MOCLDY    75  55  50 W8        29.89R
GREEN BAY      PTCLDY    77  54  44 W10       29.88S
MANITOWOC      CLEAR     79  53  40 MISG      29.89R
APPLETON       PTCLDY    77  48  36 W17G23    29.91
CLINTONVILLE   PTCLDY    77  50  38 W8        29.89S
OSHKOSH        CLEAR     78  53  41 W5        29.91R
$$

WIZ032>034-041-042-053>061-300200-
SOUTHWEST WISCONSIN

CITY           SKY/WX    TMP DP  RH WIND       PRES   REMARKS
LA CROSSE      CLEAR     79  54  41 W10       29.96R
SPARTA         CLEAR     77  51  39 W6        29.96S
VIROQUA        CLEAR     74  54  49 W7        30.00S
BOSCOBEL       CLEAR     79  54  41 W8        29.99R
PRAIRIE DU CHI CLEAR     78  49  36 W7        29.99S
PLATTEVILLE    CLEAR     75  55  48 W7        30.01S
$$

WIZ056-057-062-063-064-067-068-300200-
SOUTH CENTRAL WISCONSIN

CITY           SKY/WX    TMP DP  RH WIND       PRES   REMARKS
REEDSBURG      CLEAR     77  54  43 W10G17    29.96R
BARABOO/DELLS  CLEAR     78  49  36 W7G16     29.96S
LONE ROCK      CLEAR     78  52  40 W15       29.98R
MINERAL POINT  CLEAR     75  52  43 W7        30.01S
MADISON        CLEAR     78  53  41 CALM      29.96R
MIDDLETON      CLEAR     77  49  37 W8        29.98R
WATERTOWN      CLEAR     76  56  49 W8        29.95R
MONROE         CLEAR     75  52  43 W13       30.00R
JANESVILLE     CLEAR     79  54  41 W12       29.97S
$$

WIZ051-052-058>065-066-070>072-300200-
SOUTHEAST WISCONSIN

CITY           SKY/WX    TMP DP  RH WIND       PRES   REMARKS
MILWAUKEE      PTCLDY    82  51  34 W12       29.93R HX  81
WAUKESHA       CLEAR     75  52  43 W12       29.96R
MILWAUKEE/TIMM NOT AVBL
RACINE         CLEAR     79  53  40 W8        29.96R
BURLINGTON     CLEAR     75  51  42 W8        29.97R
KENOSHA        CLEAR     76  55  48 W10       29.96R
FOND DU LAC    CLEAR     78  54  43 W7        29.92R
SHEBOYGAN      CLEAR     77  54  44 W8        29.90R
WEST BEND      CLEAR     77  50  38 W8G18     29.93R
JUNEAU         CLEAR     73  56  54 W10       29.95S
$$

LSZ147-162-300200-
LAKE SUPERIOR

STATION/POSITION TIME  TEMP    WIND        PRES    WAVE
                       AIR SEA DIR/SP/G            HT/PER
                 (UTC) (F)     (DEG/KT/KT) (MB)    (FT/S)
W MID LAKE BUOY  0050   61 55  220/ 12/ 12 1006.8R   4/ 6
DEVILS ISLAND    0100   69     240/ 22/ 24 1007.3S
PORT WING        0000   75     250/ 16/ 19 1008.8S
SAXON HARBOR     0000   76                 1008.8S
$$

LMZ867-665-643>646-300200-
LAKE MICHIGAN

STATION/POSITION TIME  TEMP    WIND        PRES    WAVE
                       AIR SEA DIR/SP/G            HT/PER
                 (UTC) (F)     (DEG/KT/KT) (MB)    (FT/S)
CHAMBERS ISLAND  0000   77     290/  3/  9 1010.2R
S GREEN BAY BUOY 0000   71 67  280/ 10/ 14 1012.4
N MID LAKE BUOY  0050   74 70  280/ 14/ 16 1009.2R   3/ 4
NORTHPORT PIER   0000   78     280/  8/ 14 1009.8R
SISTER BAY       0044   77     300/ 17/ 19   N/A
ALGOMA LAKESHORE 0042          330/  5/ 10   N/A
KEWAUNEE LAKESHO 0000   81                   N/A
SHEBOYGAN LAKESH 0100   81     280/ 11/ 14 1012.2R
PORT WASHINGTON  0000   84     270/  9/ 15 1013.2R
ATWATER BUOY     0100   77     260/ 14/ 17 1014.7R
MILWAUKEE LAKESH 0000   83     270/ 15/ 21   N/A
KENOSHA   LAKESH 0100   81     260/ 11/ 16 1013.5R
$$

TC  - TEMPERATURE IN CELSIUS
VSB - VISIBILITY IN STATUTE MILES
WCI - WIND CHILL INDEX
HX  - HEAT INDEX



USA.gov is the U.S. government's official web portal to all federal, state and local government web resources and services.